Regional Weather Roundup
Issued by NWS

Home | Current Version | Previous Version | Text Only | Print | Product List | Glossary Off
Versions: 1 2 3 4 5 6 7 8 9 10 11 12 13 14 15 16 17 18 19 20 21 22 23 24 25 26 27 28 29 30 31 32 33 34 35 36 37 38 39 40 41 42 43 44 45 46 47 48 49 50

000
ASUS44 KMEG 311810
RWRTN
TENNESSEE HOURLY STATE WEATHER ROUNDUP
NATIONAL WEATHER SERVICE MEMPHIS TN
100 PM CDT THU JUL 31 2014

TNZ002-004-019-021-049-052-054-088>092-311900-
WEST TENNESSEE

CITY           SKY/WX    TMP DP  RH WIND       PRES   REMARKS
MEMPHIS INTL   PTSUNNY   78  65  63 VRB3      30.11F
NWS MEMPHIS      N/A     77 N/A N/A MISG        N/A
JACKSON        CLOUDY    78  60  53 E3        30.11S
DYERSBURG      CLOUDY    77  57  50 CALM      30.12S
UNION CITY     MOSUNNY   75  63  64 CALM      30.11S
PARIS          PTSUNNY   78  60  53 CALM      30.12S
LEXINGTON      SUNNY     81  61  50 E6        30.10S
SAVANNAH       PTSUNNY   79  63  57 CALM      30.11S
$$

TNZ008-025-027-028-033-062-065-066-311900-
NORTH MIDDLE TENNESSEE

CITY           SKY/WX    TMP DP  RH WIND       PRES   REMARKS
NASHVILLE      PTSUNNY   81  56  42 CALM      30.11S
DICKSON        MOSUNNY   81  55  41 NE5       30.11S
PORTLAND       SUNNY     81  55  41 CALM      30.10F
CLARKSVILLE    PTSUNNY   83  53  35 CALM      30.10S
LEBANON        CLOUDY    80  56  43 NW5       30.09F
SMYRNA         SUNNY     87  60  40 VRB6      30.11F
MURFREESBORO   SUNNY     81  58  45 VRB3      30.10S
COOKEVILLE     MOSUNNY   81  61  50 CALM      30.12S
GALLATIN       SUNNY     84  56  38 VRB5      30.11F
CROSSVILLE     PTSUNNY   75  58  55 VRB5      30.15F
$$

TNZ061-075-076-078-094-096-097-311900-
SOUTH MIDDLE TENNESSEE

CITY           SKY/WX    TMP DP  RH WIND       PRES   REMARKS
LEWISBURG      SUNNY     80  58  46 VRB5      30.11S
FAYETTEVILLE   SUNNY     77  57  50 NE9       30.11S
TULLAHOMA      SUNNY     75  59  57 E5        30.13S
WINCHESTER     SUNNY     81  61  50 VRB3      30.11S
MCMINNVILLE    SUNNY     79  61  53 CALM      30.12S
COLUMBIA       PTSUNNY   81  59  47 CALM      30.10S
SHELBYVILLE    SUNNY     81  63  54 CALM      30.12S
$$

TNZ017-018-042-046-047-311900-
NORTHEAST TENNESSEE

CITY           SKY/WX    TMP DP  RH WIND       PRES   REMARKS
TRI CITIES     CLOUDY    78  59  51 VRB3      30.15S
$$

TNZ012-013-036-069-073-074-311900-
CENTRAL EAST TENNESSEE

CITY           SKY/WX    TMP DP  RH WIND       PRES   REMARKS
KNOXVILLE      PTSUNNY   78  62  57 VRB5      30.11F
OAK RIDGE      PTSUNNY   79  63  57 CALM      30.13F
GATLINBURG     PTCLDY    75  61  60 CALM      30.12S
MORRISTOWN     CLEAR     79  61  53 CALM      30.14F
$$

TNZ083-085-099-311900-
SOUTHEAST TENNESSEE

CITY           SKY/WX    TMP DP  RH WIND       PRES   REMARKS
CHATTANOOGA    CLOUDY    76  61  59 NE5       30.11F
$$

SKY/WX REPORTED AS FAIR MEANS FEW OR NO CLOUDS BELOW
12 THOUSAND FEET.



USA.gov is the U.S. government's official web portal to all federal, state and local government web resources and services.